Location: Unspecified
(40.2740°N, 0.0000°E)
Time: 03:59:16
(UTC+00:00)

Iridium 4 Rocket - Visible Passes

Search period start: 04 April 2026 00:00
Search period end: 14 April 2026 00:00
Orbit: 579 x 886 km, 86.9° (Epoch: 29 March)

Date Brightness Start Highest point End Pass type
(mag) Time Alt. Az. Time Alt. Az. Time Alt. Az.
4 Apr 2.8 04:23:39 10° S 04:27:45 72° W 04:31:58 10° N visible
5 Apr 4.5 03:37:17 10° SSE 03:41:02 36° E 03:44:55 10° NNE visible
6 Apr 6.0 02:52:49 10° ESE 02:54:37 13° ENE 02:56:27 10° NE visible
6 Apr 3.3 04:29:54 10° SSW 04:33:50 44° W 04:37:56 10° N visible
7 Apr 3.5 03:43:30 13° SSE 03:47:01 57° E 03:51:14 10° N visible
8 Apr 5.5 02:57:30 10° SE 03:00:29 20° E 03:03:35 10° NE visible
8 Apr 3.9 04:36:46 12° SW 04:39:59 29° W 04:43:45 10° NNW visible
9 Apr 2.9 03:50:26 22° S 03:53:01 89° WSW 03:57:24 10° N visible
10 Apr 4.8 03:04:01 18° SE 03:06:23 30° E 03:10:12 10° NNE visible
10 Apr 4.4 04:43:34 12° WSW 04:46:11 19° WNW 04:49:21 10° NNW visible
11 Apr 6.0 02:19:02 10° E 02:20:03 11° ENE 02:21:05 10° ENE visible
11 Apr 3.1 03:57:07 29° SSW 03:59:06 56° W 04:03:27 10° N visible
12 Apr 3.9 03:10:39 30° SE 03:12:19 47° E 03:16:36 10° NNE visible
12 Apr 4.9 04:50:24 10° WSW 04:52:27 13° WNW 04:54:32 10° NW visible
13 Apr 5.6 02:24:09 14° ESE 02:25:52 17° E 02:28:44 10° NE visible
13 Apr 3.7 04:03:41 27° SW 04:05:13 36° W 04:09:23 10° NNW visible
